Location: ?????
(31.4012°N, 45.3591°E)
Time: 01:59:16
(UTC+00:00)

Daily predictions for brighter satellites

Satellite Brightness Start Highest point End
(mag) Time Altitude Azimuth Time Altitude Azimuth Time Altitude Azimuth
CENTAUR R/B 4.0 01:07:24 29° N 01:11:29 48° NE 01:19:51 10° SE
BREEZE-M DEB (TANK) 3.7 01:20:26 78° NNE 01:20:28 78° NE 01:24:26 10° SE
NOSS 3-2 (A) 4.0 01:20:50 79° NW 01:21:25 85° WSW 01:30:02 10° SSE
Cosmos 1295 Rocket 4.3 01:37:52 83° SW 01:37:52 83° SW 01:43:44 10° S
Cosmos 2227 4.2 01:38:15 77° NE 01:38:24 78° ENE 01:43:59 10° SSE
Meteor 2-17 Rocket 4.3 01:39:18 74° SSW 01:39:18 74° SSW 01:44:47 10° S
Cosmos 2322 Rocket 2.9 01:43:53 42° N 01:43:53 42° N 01:47:39 10° NNE
ALOS 3.6 01:37:52 10° NNE 01:42:13 38° E 01:46:33 10° SSE
ATLAS 2AS CENTAUR R/B 4.1 01:47:47 27° NNW 01:47:47 27° NNW 01:52:36 10° N
Cosmos 972 Rocket 4.3 01:47:00 54° S 01:47:00 54° S 01:50:55 10° S
Cosmos 2263 Rocket 2.4 01:45:29 42° N 01:47:23 70° ENE 01:53:02 10° SSE
Meteosat 1 Rocket2 3.9 01:48:12 43° SSE 01:48:12 43° SSE 01:51:29 10° E
USA 238 DEB 4.2 02:02:24 40° WSW 02:02:32 40° WSW 02:09:22 10° S
USA 238 4.2 02:02:26 40° WSW 02:02:39 40° WSW 02:09:29 10° S
Cosmos 962 Rocket 4.5 02:00:20 18° NNW 02:05:03 61° W 02:11:17 10° S
Cosmos 1703 3.1 02:08:34 66° N 02:09:05 86° E 02:12:58 10° S
Cosmos 2333 Rocket 4.2 02:04:24 10° SSE 02:09:17 29° ESE 02:14:11 10° NE
FENGYUN 3A 3.6 02:11:55 10° NNE 02:17:22 89° WNW 02:22:47 10° SSW
SKYMED 2 3.7 02:13:27 10° SSE 02:17:46 73° ENE 02:22:06 10° N
USA 32 4.0 02:14:06 10° N 02:19:16 61° W 02:24:26 10° S
Cosmos 1953 Rocket 3.6 02:19:15 51° WNW 02:19:39 53° W 02:23:52 10° S
Cosmos 2360 Rocket 2.2 02:19:54 10° SSW 02:25:28 60° WNW 02:31:05 10° NNE
SL-16 R/B 3.6 02:28:25 20° NW 02:28:25 20° NW 02:31:07 10° N
Cosmos 2219 Rocket 3.6 02:22:19 10° S 02:27:34 41° ESE 02:32:51 10° NE
Abrixas rocket 3.6 02:30:22 23° SSW 02:30:22 23° SSW 02:32:13 10° SSE
SL-8 Rocket 4.0 02:26:10 10° NNW 02:32:10 55° W 02:38:07 10° SSW
Cosmos 1340 Rocket 3.8 02:28:54 10° SSE 02:32:39 47° E 02:36:24 10° NNE
Cosmos 2333 4.4 02:27:51 10° SSW 02:33:36 74° ESE 02:39:23 10° NNE
GPS 2-04 Rocket1 4.0 02:32:03 14° SSW 02:34:29 30° SSE 02:37:37 10° E
Cosmos 2322 3.7 02:29:01 10° SSW 02:34:41 88° ESE 02:40:22 10° NNE
Milstar 3 4.0 02:23:30 10° WSW 02:34:53 53° SSE 02:41:54 10° E
Cosmos 1371 Rocket 4.0 02:30:30 11° NNW 02:35:41 68° WSW 02:40:59 10° S
Hubble Space Telescope 3.0 02:33:29 10° SSW 02:36:32 20° SSE 02:39:36 10° ESE
Cosmos 1300 2.5 02:33:36 10° S 02:37:24 85° W 02:41:14 10° N
Lacrosse 5 3.9 02:39:53 11° NNW 02:39:53 11° NNW 02:40:51 10° NNW
Skynet4D Del rocket 4.2 02:35:51 19° WSW 02:40:11 54° S 02:45:38 10° E
Cosmos 1461 4.2 02:41:21 10° S 02:44:59 40° ESE 02:48:41 10° NE
ATLAS 3B R/B 2.7 02:39:15 12° NW 02:45:39 67° WSW 02:52:37 10° SSE
MOS 1-B 4.5 02:40:48 10° N 02:46:22 50° WNW 02:51:56 10° SW
NOAA 6 4.0 02:42:53 10° N 02:48:04 75° WNW 02:53:14 10° SSW
CZ-4B R/B 3.1 02:43:08 10° NNE 02:48:36 84° WNW 02:53:56 10° SSW
H-2A R/B 3.5 02:51:14 10° NNE 02:55:03 55° E 02:58:46 10° S
Delta 2 Rocket 4.5 02:50:35 14° WSW 02:56:36 57° S 03:02:41 10° ESE
Cosmos 1174 4.3 02:55:34 10° SW 02:59:37 37° WNW 03:02:59 10° N
Cosmos 1624 Rocket 4.4 02:57:19 10° NNW 03:02:10 41° W 03:07:01 10° S
CENTAUR R/B 3.8 02:54:38 10° NW 03:02:10 38° WSW 03:10:01 10° S
Nadezhda 3 Rocket 3.9 02:58:32 10° SSW 03:04:37 67° W 03:10:47 10° N
Okean O Rocket 1.9 03:00:50 10° N 03:05:04 45° WNW 03:09:15 10° SSW
COSMOS 2428 2.8 02:59:28 10° SSW 03:05:10 89° ESE 03:10:55 10° NNE
COSMO-SKYMED 1 3.5 03:02:12 10° SSW 03:05:53 27° W 03:09:37 10° NW
Cosmos 1821 Rocket 4.1 03:00:35 10° N 03:06:42 80° E 03:12:46 10° S
CZ-3 R/B 2.8 02:51:04 15° W 03:06:44 56° SSW 03:12:14 10° SE
Alouette 2 Rocket 3.8 03:04:27 10° SSW 03:08:59 43° W 03:12:32 10° N
Cosmos 1048 Rocket 4.0 03:04:06 10° SSW 03:09:21 68° WNW 03:14:34 10° N
Meteor 2-12 Rocket 4.5 03:04:00 10° NNW 03:10:00 60° W 03:16:01 10° S
Cosmos 2084 Rocket 4.1 03:06:28 10° WSW 03:10:26 35° NW 03:14:30 10° NNE
Cosmos 2058 3.4 03:08:31 10° N 03:12:43 67° E 03:16:53 10° SSE
Cosmos 494 Rocket 4.2 03:11:48 10° S 03:16:57 75° ESE 03:22:05 10° NNE
FALCON 9 DEB 3.2 03:14:06 10° NW 03:17:36 68° SW 03:21:04 10° SE
Okean-O 4.5 03:13:55 10° NNE 03:18:00 36° E 03:22:04 10° SSE
Cosmos 2056 Rocket 4.4 03:13:56 10° NW 03:18:35 30° W 03:23:11 10° SSW
ALOS 3.7 03:16:24 10° NNW 03:19:17 16° WNW 03:22:09 10° WSW
AQUARIUS 4.2 03:15:51 10° NNE 03:20:21 88° E 03:24:51 10° SSW
Cosmos 1892 3.7 03:18:01 10° N 03:21:43 50° E 03:25:22 10° SSE
IRS-1C Rocket 4.3 03:17:00 10° NNE 03:22:18 81° ESE 03:27:34 10° S
ATLAS 2A CENTAUR R/B 2.9 03:23:32 10° WSW 03:26:53 54° SSE 03:38:17 10° E
Cosmos 1269 Rocket 4.4 03:23:29 10° S 03:28:43 73° ESE 03:33:59 10° NNE
Helios 1A Rocket 3.7 03:25:43 10° N 03:29:20 30° WNW 03:32:58 10° SW
Cosmos 2263 Rocket 4.0 03:28:57 10° W 03:30:35 11° W 03:32:14 10° WSW
Cosmos 2237 Rocket 3.3 03:25:43 10° S 03:31:10 52° ESE 03:36:38 10° NNE
NOSS 0 Rocket 4.3 03:25:54 10° SSW 03:32:05 75° ESE 03:38:19 10° NNE
